Radiation Dose at Monitoring Post of Fukushima Daini Nuclear Power Station
Date,Time,MP-1(microSv/h),MP-2(microSv/h),MP-3(microSv/h),MP-4(microSv/h),MP-5(microSv/h),MP-6(microSv/h),MP-7(microSv/h),Wind Direction,Wind Velocity(m/s),Rain
2018/01/24,00:00,0.299,0.184,0.306,0.292,0.270,0.155,0.094,north-northwest,6.3,No
2018/01/24,00:10,0.298,0.183,0.305,0.293,0.270,0.155,0.095,north,6.0,No
2018/01/24,00:20,0.297,0.184,0.305,0.292,0.269,0.156,0.095,north,7.6,No
2018/01/24,00:30,0.298,0.183,0.306,0.294,0.270,0.155,0.095,north,7.1,No
2018/01/24,00:40,0.300,0.183,0.307,0.292,0.270,0.156,0.095,north,6.4,No
2018/01/24,00:50,0.299,0.184,0.307,0.293,0.269,0.155,0.095,north-northeast,5.5,No
2018/01/24,01:00,0.299,0.183,0.307,0.293,0.270,0.155,0.095,north-northeast,4.8,No
2018/01/24,01:10,0.300,0.184,0.307,0.293,0.269,0.155,0.095,north,2.0,No
2018/01/24,01:20,0.298,0.183,0.308,0.293,0.269,0.156,0.095,east,1.4,No
2018/01/24,01:30,0.298,0.185,0.307,0.293,0.270,0.156,0.096,-,CALM,No
2018/01/24,01:40,0.299,0.183,0.307,0.292,0.270,0.156,0.095,south-southeast,2.1,No
2018/01/24,01:50,0.298,0.184,0.306,0.295,0.269,0.156,0.095,south-southwest,2.3,No
2018/01/24,02:00,0.299,0.184,0.307,0.293,0.269,0.156,0.095,south-southwest,3.7,No
2018/01/24,02:10,0.299,0.184,0.306,0.293,0.269,0.155,0.094,south-southwest,7.9,No
2018/01/24,02:20,0.300,0.184,0.305,0.293,0.270,0.155,0.095,south-southwest,7.0,No
2018/01/24,02:30,0.300,0.184,0.307,0.293,0.269,0.156,0.095,south-southwest,7.3,No
2018/01/24,02:40,0.298,0.184,0.306,0.294,0.268,0.155,0.095,south-southwest,7.3,No
2018/01/24,02:50,0.300,0.184,0.307,0.294,0.269,0.156,0.095,southwest,6.4,No
2018/01/24,03:00,0.299,0.184,0.307,0.293,0.269,0.157,0.095,southwest,5.0,No
2018/01/24,03:10,0.300,0.183,0.307,0.294,0.269,0.156,0.094,southwest,3.9,No
2018/01/24,03:20,0.299,0.185,0.307,0.293,0.268,0.156,0.095,west-southwest,5.2,No
2018/01/24,03:30,0.300,0.183,0.306,0.294,0.270,0.156,0.095,west-southwest,6.2,No
2018/01/24,03:40,0.299,0.183,0.306,0.293,0.269,0.156,0.095,southwest,7.3,No
2018/01/24,03:50,0.300,0.183,0.306,0.292,0.270,0.156,0.095,west-southwest,7.9,No
2018/01/24,04:00,0.299,0.183,0.308,0.293,0.269,0.156,0.095,west-southwest,7.1,No
2018/01/24,04:10,0.299,0.184,0.307,0.294,0.270,0.156,0.095,west-southwest,7.0,No
2018/01/24,04:20,0.299,0.184,0.308,0.292,0.269,0.157,0.094,west-southwest,5.3,No
2018/01/24,04:30,0.300,0.183,0.307,0.294,0.268,0.156,0.095,west,4.5,No
2018/01/24,04:40,0.298,0.184,0.308,0.292,0.268,0.156,0.095,west-northwest,4.9,No
2018/01/24,04:50,0.299,0.183,0.307,0.293,0.268,0.156,0.095,west,5.4,No
2018/01/24,05:00,0.299,0.183,0.309,0.293,0.269,0.155,0.095,west,4.3,No
2018/01/24,05:10,0.300,0.184,0.308,0.294,0.269,0.155,0.095,west-northwest,3.8,No
2018/01/24,05:20,0.300,0.183,0.308,0.291,0.269,0.156,0.095,west,3.1,No
2018/01/24,05:30,0.300,0.184,0.307,0.293,0.268,0.156,0.096,west-northwest,3.0,No
2018/01/24,05:40,0.299,0.184,0.307,0.293,0.268,0.155,0.096,west,6.3,No
2018/01/24,05:50,0.300,0.185,0.307,0.294,0.269,0.156,0.095,west,8.1,No
2018/01/24,06:00,0.300,0.184,0.308,0.294,0.268,0.155,0.095,west,10.3,No
2018/01/24,06:10,0.300,0.183,0.308,0.292,0.269,0.155,0.095,west,12.3,No
2018/01/24,06:20,0.298,0.182,0.306,0.292,0.268,0.157,0.096,west,11.2,No
2018/01/24,06:30,0.299,0.183,0.309,0.294,0.269,0.156,0.095,west,10.9,No
2018/01/24,06:40,0.299,0.184,0.307,0.293,0.269,0.155,0.095,west,11.2,No
2018/01/24,06:50,0.300,0.184,0.307,0.293,0.268,0.155,0.096,west,9.5,No
2018/01/24,07:00,0.299,0.183,0.308,0.293,0.268,0.156,0.094,west,8.4,No
2018/01/24,07:10,0.300,0.184,0.307,0.294,0.270,0.156,0.095,west,6.5,No
2018/01/24,07:20,0.299,0.183,0.309,0.293,0.269,0.156,0.095,west,5.9,No
2018/01/24,07:30,0.299,0.184,0.309,0.293,0.269,0.155,0.094,west,6.7,No
2018/01/24,07:40,0.300,0.183,0.307,0.292,0.270,0.156,0.095,west,6.4,No
2018/01/24,07:50,0.300,0.185,0.307,0.291,0.269,0.156,0.095,west,6.7,No
2018/01/24,08:00,0.300,0.183,0.308,0.293,0.268,0.156,0.094,west-southwest,4.8,No
2018/01/24,08:10,0.300,0.184,0.307,0.293,0.268,0.157,0.095,southwest,3.7,No
2018/01/24,08:20,0.299,0.183,0.307,0.292,0.268,0.157,0.095,southwest,8.5,No
2018/01/24,08:30,0.300,0.183,0.307,0.292,0.268,0.155,0.095,west-southwest,5.0,No
2018/01/24,08:40,0.299,0.184,0.307,0.293,0.268,0.156,0.094,west-southwest,6.0,No
2018/01/24,08:50,0.299,0.183,0.306,0.294,0.269,0.157,0.095,west-southwest,5.8,No
2018/01/24,09:00,0.300,0.183,0.306,0.291,0.269,0.156,0.095,west-southwest,4.7,No
2018/01/24,09:10,0.300,0.184,0.308,0.292,0.269,0.155,0.094,west-southwest,4.4,No
2018/01/24,09:20,0.299,0.185,0.306,0.292,0.269,0.156,0.096,west-southwest,3.5,No
2018/01/24,09:30,0.301,0.183,0.307,0.293,0.270,0.156,0.094,west-southwest,4.5,No
2018/01/24,09:40,0.299,0.183,0.307,0.293,0.268,0.156,0.095,west-southwest,4.5,No
2018/01/24,09:50,0.298,0.183,0.308,0.292,0.269,0.156,0.094,west-southwest,4.9,No
2018/01/24,10:00,0.300,0.182,0.306,0.293,0.269,0.157,0.094,west-southwest,6.3,No
2018/01/24,10:10,0.299,0.183,0.308,0.292,0.269,0.156,0.095,west-southwest,5.3,No
2018/01/24,10:20,0.298,0.183,0.307,0.293,0.269,0.156,0.095,west,8.2,No
2018/01/24,10:30,0.298,0.183,0.308,0.294,0.269,0.157,0.095,west,7.3,No
2018/01/24,10:40,0.298,0.183,0.309,0.292,0.268,0.156,0.095,west-southwest,9.6,No
2018/01/24,10:50,0.298,0.185,0.307,0.295,0.270,0.156,0.095,southwest,9.2,No
2018/01/24,11:00,0.298,0.184,0.308,0.295,0.270,0.156,0.095,west,7.1,No
2018/01/24,11:10,0.301,0.183,0.306,0.294,0.269,0.156,0.096,west-southwest,10.4,No
2018/01/24,11:20,0.299,0.184,0.308,0.295,0.272,0.157,0.095,west-southwest,9.5,No
2018/01/24,11:30,0.300,0.184,0.308,0.295,0.270,0.157,0.095,west,7.3,No
2018/01/24,11:40,0.300,0.184,0.310,0.293,0.270,0.157,0.095,west,9.0,No
2018/01/24,11:50,0.298,0.185,0.308,0.295,0.271,0.157,0.096,west-northwest,11.7,Yes
2018/01/24,12:00,0.301,0.185,0.308,0.296,0.269,0.158,0.098,west-northwest,11.1,Yes
2018/01/24,12:10,0.303,0.187,0.310,0.298,0.273,0.160,0.099,west,6.0,Yes
2018/01/24,12:20,0.305,0.188,0.310,0.299,0.275,0.160,0.099,west-southwest,6.5,No
2018/01/24,12:30,0.305,0.189,0.310,0.299,0.275,0.161,0.099,west,6.9,No
2018/01/24,12:40,0.303,0.188,0.311,0.300,0.274,0.160,0.099,northwest,6.1,No
2018/01/24,12:50,0.303,0.188,0.311,0.298,0.274,0.161,0.099,west-northwest,7.1,No
2018/01/24,13:00,0.302,0.187,0.309,0.296,0.273,0.159,0.098,west,8.5,No
2018/01/24,13:10,0.301,0.186,0.309,0.296,0.274,0.159,0.098,west-northwest,6.2,No
2018/01/24,13:20,0.302,0.187,0.309,0.298,0.274,0.159,0.099,west-northwest,8.4,No
2018/01/24,13:30,0.301,0.187,0.310,0.297,0.273,0.159,0.097,west-northwest,7.0,No
2018/01/24,13:40,0.302,0.187,0.307,0.297,0.273,0.160,0.097,west,9.0,No
2018/01/24,13:50,0.302,0.186,0.309,0.297,0.273,0.158,0.097,west-northwest,6.3,No
2018/01/24,14:00,0.301,0.186,0.311,0.296,0.272,0.159,0.096,northwest,12.3,No
2018/01/24,14:10,0.301,0.185,0.310,0.297,0.274,0.158,0.098,west-northwest,10.3,No
2018/01/24,14:20,0.302,0.186,0.310,0.298,0.273,0.159,0.097,west-northwest,12.6,No
2018/01/24,14:30,0.302,0.186,0.311,0.298,0.273,0.159,0.097,west-northwest,9.3,No
2018/01/24,14:40,0.303,0.187,0.311,0.298,0.275,0.158,0.097,west-northwest,8.9,No
2018/01/24,14:50,0.302,0.187,0.310,0.299,0.276,0.160,0.098,west-northwest,8.5,No
2018/01/24,15:00,0.302,0.187,0.310,0.299,0.275,0.159,0.097,west-northwest,6.5,No
2018/01/24,15:10,0.304,0.187,0.312,0.299,0.275,0.159,0.098,northwest,6.4,No
2018/01/24,15:20,0.304,0.187,0.312,0.298,0.274,0.160,0.098,west-northwest,5.0,No
2018/01/24,15:30,0.303,0.188,0.312,0.299,0.277,0.159,0.098,northwest,5.3,No
2018/01/24,15:40,0.304,0.186,0.311,0.298,0.274,0.159,0.098,northwest,9.2,No
2018/01/24,15:50,0.303,0.186,0.312,0.298,0.274,0.159,0.097,northwest,8.2,No
2018/01/24,16:00,0.303,0.187,0.311,0.299,0.274,0.159,0.098,north-northwest,8.4,No
2018/01/24,16:10,0.304,0.187,0.313,0.299,0.274,0.159,0.098,northwest,7.3,No
2018/01/24,16:20,0.303,0.187,0.312,0.300,0.275,0.160,0.098,west-northwest,7.6,No
2018/01/24,16:30,0.303,0.188,0.312,0.300,0.275,0.158,0.098,northwest,6.9,No
2018/01/24,16:40,0.303,0.187,0.312,0.301,0.274,0.159,0.098,west-northwest,9.0,No
2018/01/24,16:50,0.304,0.187,0.312,0.300,0.275,0.160,0.098,west-northwest,6.7,No
2018/01/24,17:00,0.304,0.187,0.313,0.300,0.275,0.160,0.098,west-northwest,6.9,No
2018/01/24,17:10,0.304,0.187,0.312,0.301,0.275,0.159,0.099,west-northwest,10.3,No
2018/01/24,17:20,0.305,0.187,0.312,0.300,0.275,0.160,0.098,northwest,8.1,No
2018/01/24,17:30,0.304,0.186,0.313,0.300,0.275,0.159,0.097,northwest,8.1,No
2018/01/24,17:40,0.304,0.187,0.313,0.301,0.276,0.160,0.098,northwest,8.2,No
2018/01/24,17:50,0.304,0.188,0.312,0.300,0.275,0.160,0.098,west-northwest,10.3,No
2018/01/24,18:00,0.305,0.188,0.313,0.301,0.275,0.160,0.098,west-northwest,8.4,No
2018/01/24,18:10,0.305,0.188,0.314,0.301,0.275,0.159,0.098,northwest,7.1,No
2018/01/24,18:20,0.303,0.188,0.313,0.300,0.276,0.160,0.098,west-northwest,6.0,No
2018/01/24,18:30,0.306,0.187,0.313,0.299,0.276,0.160,0.098,northwest,5.6,No
2018/01/24,18:40,0.305,0.188,0.314,0.300,0.276,0.160,0.098,north,3.8,No
2018/01/24,18:50,0.306,0.188,0.313,0.300,0.275,0.160,0.098,north,4.0,No
2018/01/24,19:00,0.304,0.188,0.313,0.300,0.277,0.160,0.098,north-northwest,4.1,No
2018/01/24,19:10,0.306,0.188,0.314,0.299,0.275,0.160,0.098,north-northwest,5.4,No
2018/01/24,19:20,0.306,0.188,0.313,0.300,0.275,0.160,0.099,north,5.6,No
2018/01/24,19:30,0.304,0.188,0.312,0.300,0.274,0.160,0.098,north-northwest,4.8,No
2018/01/24,19:40,0.305,0.188,0.313,0.300,0.275,0.159,0.098,north-northwest,5.0,No
2018/01/24,19:50,0.304,0.188,0.313,0.299,0.275,0.159,0.098,northwest,3.1,No
2018/01/24,20:00,0.305,0.188,0.313,0.300,0.274,0.159,0.097,west,1.8,No
2018/01/24,20:10,0.304,0.188,0.311,0.300,0.273,0.160,0.098,west,1.8,No
2018/01/24,20:20,0.303,0.188,0.312,0.301,0.274,0.159,0.099,west,2.8,No
2018/01/24,20:30,0.304,0.188,0.312,0.299,0.276,0.160,0.098,west,1.4,No
2018/01/24,20:40,0.305,0.187,0.313,0.300,0.274,0.160,0.097,west-northwest,0.8,No
2018/01/24,20:50,0.305,0.187,0.313,0.300,0.273,0.159,0.098,northeast,0.8,No
2018/01/24,21:00,0.305,0.187,0.311,0.299,0.274,0.160,0.098,west-southwest,0.9,No
2018/01/24,21:10,0.304,0.188,0.310,0.301,0.274,0.160,0.098,west,1.3,No
2018/01/24,21:20,0.304,0.187,0.312,0.300,0.273,0.160,0.097,west-southwest,1.4,No
2018/01/24,21:30,0.305,0.187,0.312,0.299,0.274,0.159,0.099,northwest,0.7,No
2018/01/24,21:40,0.304,0.188,0.311,0.300,0.274,0.160,0.098,west,2.9,No
2018/01/24,21:50,0.304,0.188,0.312,0.300,0.273,0.160,0.097,west,4.0,No
2018/01/24,22:00,0.303,0.187,0.313,0.300,0.274,0.159,0.097,north-northwest,2.0,No
2018/01/24,22:10,0.303,0.187,0.311,0.299,0.273,0.159,0.097,west-northwest,0.9,No
2018/01/24,22:20,0.306,0.187,0.313,0.300,0.273,0.160,0.099,west,4.7,No
2018/01/24,22:30,0.304,0.187,0.314,0.300,0.273,0.159,0.097,west,4.9,No
2018/01/24,22:40,0.303,0.187,0.312,0.300,0.273,0.160,0.097,west-northwest,3.6,No
2018/01/24,22:50,0.304,0.187,0.312,0.300,0.275,0.160,0.096,west,6.9,No
2018/01/24,23:00,0.304,0.187,0.311,0.299,0.273,0.159,0.097,west-northwest,3.8,No
2018/01/24,23:10,0.304,0.187,0.311,0.299,0.272,0.159,0.097,west-northwest,2.6,No
2018/01/24,23:20,0.305,0.186,0.313,0.299,0.274,0.159,0.098,west,2.7,No
2018/01/24,23:30,0.304,0.187,0.311,0.299,0.274,0.159,0.097,west,1.7,No
2018/01/24,23:40,0.305,0.187,0.312,0.299,0.273,0.159,0.097,west-southwest,3.8,No
2018/01/24,23:50,0.305,0.188,0.310,0.298,0.273,0.160,0.097,west,5.1,No
